Location: Hastringsfeld
(50.9620°N, 10.4787°E)
Time: 11:50:58
(UTC+00:00)

Cosmos 304 Rocket - Pass Details

Date: 26 September 2023
Orbit: 677 x 682 km, 74.0° (Epoch: 09 December)

Event Time Altitude Azimuth Distance (km) Brightness Sun altitude
Exits shadow 02:47:46 51° 290° (WNW) 858 3.9 -22.4°
Maximum altitude 02:47:59 52° 300° (WNW) 853 4.0 -22.3°
Drops below altitude 10° 02:52:41 10° 17° (NNE) 2,140 6.9 -21.7°
Sets 02:55:04 0° 22° (NNE) 3,059 7.9 -21.3°
